CAPE
7 7 8 7 8 8 8 8 7 6 7 7 5 4 7 6 6 6 5 1 0 1 1 0 1 0 0 0 0 0 0 352 0 0 0 0 0 0 0 0 0 10 0 4 0 0 18
8 7 8 8 8 9 9 8 8 8 6 7 5 5 5 7 6 5 5 1 0 0 0 0 0 0 0 0 0 0 0 0 0 0 0 0 0 0 0 0 0 0 0 0 11 57 49
8 8 8 9 9 9 8 8 8 8 7 6 6 6 4 7 6 6 4 2 0 0 1 1 0 0 0 0 0 0 0 0 0 0 0 0 0 0 0 0 0 0 10 24 18 53 87
7 7 8 9 9 10 9 9 10 7 8 5 5 5 5 5 5 4 2 1 0 0 1 0 0 0 0 0 0 0 0 0 0 0 0 0 0 0 0 0 0 10 43 91 30 143 103
7 9 9 9 12 14 13 9 9 9 10 7 6 5 4 4 4 3 0 0 2 1 1 0 0 0 0 0 0 0 0 0 0 0 0 0 0 0 0 17 25 25 58 17 14 181 170
10 11 13 9 13 13 13 13 9 11 12 10 8 5 6 4 3 2 0 0 0 0 0 0 0 0 0 0 0 0 0 0 0 0 0 0 0 4 18 54 75 47 20 1 12 103 453
11 11 11 10 10 14 15 14 10 11 10 11 8 7 8 6 5 1 0 0 0 0 0 0 0 0 0 0 0 0 0 0 0 0 0 0 0 17 24 0 0 0 0 2 32 90 175
10 10 9 11 13 15 14 15 13 11 9 9 9 9 6 5 3 0 0 0 0 0 0 0 0 0 0 0 0 0 0 0 0 0 0 0 1 24 0 0 0 0 0 20 94 136 203
13 13 13 12 12 16 15 13 11 10 11 9 9 9 6 4 2 0 0 0 0 0 0 0 0 0 0 0 0 0 0 0 0 0 0 6 2 0 0 0 0 2 6 2 21 172 254
14 12 11 10 15 15 11 9 10 10 9 9 10 9 6 0 0 0 0 0 0 0 0 0 0 0 0 0 0 0 0 0 0 0 0 3 4 0 0 0 0 25 0 0 0 120 174
18 16 12 15 12 10 9 8 10 11 9 9 11 9 4 0 0 0 0 0 0 0 0 0 0 0 0 0 0 0 0 0 0 0 0 0 0 0 0 0 0 1 0 16 42 127 139
13 12 11 11 10 11 12 8 5 3 5 8 11 9 3 0 0 0 0 0 0 0 0 0 0 0 0 0 0 0 0 0 0 0 0 0 0 0 0 0 0 0 0 119 134 134 127
10 13 13 13 10 6 8 7 8 9 9 9 4 3 8 0 0 0 0 0 0 0 0 0 0 0 0 0 0 0 0 0 0 0 0 0 0 0 0 0 0 0 26 165 153 99 92
11 9 9 8 5 6 5 7 8 7 8 4 0 0 0 0 0 0 0 0 0 0 0 0 0 0 0 0 0 0 0 0 0 0 0 0 0 0 0 0 29 2 72 146 168 120 178
12 12 12 9 4 7 6 8 6 6 5 1 0 0 0 0 0 0 0 0 0 0 9 0 0 0 0 0 0 0 0 0 0 0 0 0 0 0 0 0 0 4 25 62 80 88 152
10 9 10 7 5 5 8 7 6 5 3 0 0 0 0 0 0 0 0 0 0 0 0 0 0 0 0 0 0 0 0 0 0 0 0 0 0 0 0 0 0 4 53 67 88 137 264
10 9 9 7 2 6 8 7 4 2 1 0 0 0 0 0 0 0 0 0 0 0 0 0 0 0 0 0 0 0 0 0 0 0 0 0 0 3 0 0 32 0 7 15 61 209 178
9 7 7 3 2 6 8 6 1 0 0 0 0 0 0 0 0 0 0 0 0 0 0 0 0 0 0 0 0 0 0 0 0 0 0 0 0 62 6 3 0 2 22 29 222 289 209
7 7 6 5 3 6 7 5 0 0 0 0 0 0 0 0 5 3 0 0 0 0 0 0 35 11 0 1 4 0 0 0 0 0 0 0 0 14 10 6 85 49 21 28 162 175 369
6 9 8 7 2 7 5 3 0 0 0 0 104 0 0 0 0 17 7 16 2 4 0 8 134 171 116 230 272 294 26 1 0 0 152 0 0 0 89 211 388 264 144 51 119 254 266
8 10 10 6 2 7 5 4 1 0 0 0 86 131 8 1 31 40 96 212 170 244 168 193 432 342 357 573 714 549 287 135 0 0 0 0 0 0 2 6 0 60 212 166 178 257 405
7 9 7 2 2 4 7 6 2 0 0 0 10 117 0 81 36 229 152 491 370 357 434 444 365 434 402 579 794 734 320 295 155 4 0 0 0 0 1 0 5 336 298 243 244 365 448
7 9 9 7 3 2 8 6 3 0 0 0 0 0 0 23 238 452 465 411 367 325 490 424 370 551 633 703 526 446 363 250 248 16 0 0 14 170 70 46 29 326 398 365 381 425 442
6 10 5 3 3 2 8 5 4 1 0 0 0 0 0 385 315 289 92 81 255 369 603 319 284 840 564 366 360 444 506 440 206 16 9 34 90 219 297 263 194 424 413 380 360 243 382
8 8 2 2 3 5 5 7 9 3 0 0 0 0 0 6 19 23 12 107 319 332 353 277 230 366 547 269 687 455 346 371 242 301 224 273 242 314 403 384 277 78 177 157 346 243 230
8 5 5 3 2 2 2 3 8 5 0 0 0 0 0 0 1 0 0 9 396 665 588 242 232 243 195 398 612 274 266 228 444 3 97 7 304 635 452 360 313 463 162 67 321 87 259
5 6 2 2 1 2 1 3 3 5 1 0 0 0 0 0 0 0 0 3 0 46 600 255 151 358 125 585 558 579 521 570 399 635 360 87 413 504 474 298 141 55 89 268 263 258 615
5 6 1 4 2 2 2 1 4 2 3 0 0 0 0 0 0 0 0 0 0 0 164 13 302 303 456 539 469 421 377 391 333 339 290 470 653 635 534 503 327 15 129 290 439 613 613
0 3 2 1 1 1 2 2 5 6 5 1 0 0 0 0 0 0 0 0 0 0 0 0 42 100 44 513 381 404 416 383 539 384 182 203 302 603 394 596 458 209 414 245 65 443 559
CIN
-0 -0 -0 -0 -0 -0 -0 -0 -0 -0 -0 -0 -0 -0 -0 -0 -0 -0 -0 -0 -0 -0 -0 -0 -0 -0 -0 -0 -0 -0 -0 -465 -0 -0 -0 -0 -0 -0 -0 -0 -0 -17 -0 -30 -0 -0 -39
-0 -0 -0 -0 -0 -0 -0 -0 -0 -0 -0 -0 -0 -0 -0 -0 -0 -0 -1 -0 -0 -0 -0 -0 -0 -0 -0 -0 -0 -0 -0 -0 -0 -0 -0 -0 -0 -0 -0 -0 -0 -0 -0 -0 -28 -35 -38
-0 -0 -0 -0 -0 -0 -0 -0 -0 -0 -1 -0 -0 -0 -0 -0 -0 -0 -1 -0 -0 -0 -0 -0 -0 -0 -0 -0 -0 -0 -0 -0 -0 -0 -0 -0 -0 -0 -0 -0 -0 -0 -8 -12 -22 -25 -24
-0 -0 -0 -0 -0 -0 -0 -0 -0 -0 -1 -0 -0 -0 -0 -0 -0 -0 -0 -0 -0 -0 -0 -0 -0 -0 -0 -0 -0 -0 -0 -0 -0 -0 -0 -0 -0 -0 -0 -0 -0 -2 -2 -0 -22 -25 -65
-0 -0 -0 -0 -0 -0 -0 -0 -1 -0 -0 -1 -1 -0 -0 -0 -0 -1 -0 -0 -0 -0 -0 -0 -0 -0 -0 -0 -0 -0 -0 -0 -0 -0 -0 -0 -0 -0 -0 -1 -0 -0 -0 -5 -12 -28 -27
-0 -0 -0 -0 -0 -0 -0 -0 -0 -0 -0 -0 -0 -0 -0 -0 -1 -0 -0 -0 -0 -0 -0 -0 -0 -0 -0 -0 -0 -0 -0 -0 -0 -0 -0 -0 -0 -0 -0 -0 -0 -0 -0 -2 -4 -29 -16
-0 -0 -0 -0 -1 -0 -0 -0 -0 -0 -1 -0 -0 -0 -0 -1 -0 -0 -0 -0 -0 -0 -0 -0 -0 -0 -0 -0 -0 -0 -0 -0 -0 -0 -0 -0 -0 -0 -0 -0 -0 -0 -0 -2 -11 -49 -23
-0 -0 -0 -0 -0 -0 -0 -0 -0 -1 -1 -0 -0 -0 -1 -1 -1 -0 -0 -0 -0 -0 -0 -0 -0 -0 -0 -0 -0 -0 -0 -0 -0 -0 -0 -0 -0 -0 -0 -0 -0 -0 -0 -0 -23 -43 -14
-0 -0 -0 -1 -0 -0 -0 -0 -1 -1 -1 -1 -0 -0 -1 -3 -0 -0 -0 -0 -0 -0 -0 -0 -0 -0 -0 -0 -0 -0 -0 -0 -0 -0 -0 -0 -0 -0 -0 -0 -0 -1 -0 -2 -5 -32 -31
-0 -0 -1 -0 -0 -0 -0 -1 -1 -1 -1 -1 -1 -2 -2 -1 -0 -0 -0 -0 -0 -0 -0 -0 -0 -0 -0 -0 -0 -0 -0 -0 -0 -0 -0 -0 -0 -0 -0 -0 -0 -0 -0 -0 -0 -6 -0
-0 -0 -0 -0 -0 -0 -1 -1 -0 -0 -0 -0 -0 -1 -2 -1 -0 -0 -0 -0 -0 -0 -0 -0 -0 -0 -0 -0 -0 -0 -0 -0 -0 -0 -0 -0 -0 -0 -0 -0 -0 -0 -0 -5 -3 -0 -3
-0 -0 -0 -0 -0 -0 -0 -1 -1 -1 -1 -0 -0 -0 -1 -0 -0 -0 -0 -0 -0 -0 -0 -0 -0 -0 -0 -0 -0 -0 -0 -0 -0 -0 -0 -0 -0 -0 -0 -0 -0 -0 -0 -6 -1 -0 -3
-0 -0 -0 -0 -0 -0 -0 -0 -0 -0 -0 -0 -0 -0 -0 -0 -0 -0 -0 -0 -0 -0 -0 -0 -0 -0 -0 -0 -0 -0 -0 -0 -0 -0 -0 -0 -0 -0 -0 -0 -0 -0 -4 -0 -0 -0 -3
-0 -0 -0 -0 -1 -0 -0 -0 -0 -0 -0 -0 -0 -0 -0 -0 -0 -0 -0 -0 -0 -0 -0 -0 -0 -0 -0 -0 -0 -0 -0 -0 -0 -0 -0 -0 -0 -0 -0 -0 -0 -13 -0 -0 -0 -1 -1
-0 -0 -0 -0 -0 -0 -0 -0 -1 -0 -0 -0 -0 -0 -0 -0 -0 -0 -0 -0 -0 -0 -82 -0 -0 -0 -0 -0 -0 -0 -0 -0 -0 -0 -0 -0 -0 -0 -0 -0 -0 -0 -15 -1 -0 -2 -0
-0 -0 -0 -0 -0 -0 -0 -0 -0 -0 -0 -0 -0 -0 -0 -0 -0 -0 -0 -0 -0 -0 -0 -0 -0 -0 -0 -0 -0 -0 -0 -0 -0 -0 -0 -0 -0 -0 -0 -0 -0 -16 -1 -0 -5 -0 -0
-0 -0 -0 -0 -0 -0 -0 -0 -0 -0 -0 -0 -0 -0 -0 -0 -0 -0 -0 -0 -0 -0 -0 -0 -0 -0 -0 -0 -0 -0 -0 -0 -0 -0 -0 -0 -0 -3 -0 -0 -0 -0 -0 -0 -4 -0 -5
-0 -0 -0 -0 -0 -0 -0 -0 -1 -0 -0 -0 -0 -0 -0 -0 -0 -0 -0 -0 -0 -0 -0 -0 -0 -0 -0 -0 -0 -0 -0 -0 -0 -0 -0 -0 -0 -16 -53 -0 -0 -62 -0 -0 -0 -0 -0
-0 -0 -0 -0 -0 -0 -0 -1 -0 -0 -0 -0 -0 -0 -0 -0 -83 -111 -0 -0 -0 -0 -0 -8 -58 -107 -0 -23 -22 -0 -0 -0 -0 -0 -0 -0 -0 -64 -5 -9 -41 -35 -22 -4 -0 -2 -2
-0 -0 -0 -0 -0 -0 -0 -1 -1 -0 -0 -0 -118 -0 -0 -0 -0 -137 -58 -131 -48 -106 -0 -163 -62 -59 -53 -21 -26 -9 -123 -87 -0 -0 -175 -0 -0 -0 -1 -0 -0 -1 -1 -5 -0 -0 -0
-0 -0 -0 -0 -0 -0 -0 -0 -1 -0 -0 -0 -131 -52 -65 -39 -100 -107 -108 -79 -52 -28 -77 -89 -26 -25 -8 -3 -9 -22 -22 -92 -0 -0 -0 -0 -0 -0 -1 -88 -0 -22 -0 -3 -0 -0 -3
-0 -0 -0 -0 -0 -0 -0 -1 -2 -0 -0 -0 -167 -98 -1 -74 -143 -52 -154 -22 -45 -37 -46 -27 -46 -15 -15 -10 -5 -3 -26 -32 -37 -48 -0 -0 -0 -1 -3 -0 -49 -3 -5 -3 -0 -0 -4
-0 -0 -0 -0 -0 -0 -0 -0 -2 -0 -0 -0 -0 -0 -0 -1 -27 -7 -5 -41 -60 -103 -53 -59 -82 -58 -22 -47 -53 -45 -43 -50 -45 -83 -0 -0 -21 -27 -8 -35 -34 -10 -3 -2 -2 -5 -3
-0 -0 -0 -0 -0 -0 -0 -0 -1 -4 -1 -0 -0 -0 -0 -0 -13 -23 -120 -162 -105 -109 -94 -89 -114 -36 -182 -190 -211 -106 -40 -27 -53 -69 -50 -71 -53 -24 -0 -32 -1 -17 -71 -40 -22 -13 -20
-0 -0 -0 -0 -0 -0 -0 -0 -0 -2 -6 -0 -0 -0 -0 -56 -7 -102 -158 -120 -94 -146 -107 -147 -203 -221 -212 -139 -22 -11 -8 -12 -14 -51 -42 -39 -26 -10 -0 -0 -3 -63 -86 -49 -21 -12 -26
-0 -0 -0 -0 -0 -0 -0 -0 -0 -2 -2 -0 -0 -0 -0 -0 -73 -0 -0 -226 -64 -63 -65 -126 -222 -227 -169 -34 -1 -3 -4 -15 -2 -16 -19 -83 -52 -0 -1 -0 -1 -13 -83 -183 -92 -23 -33
-0 -0 -0 -0 -0 -0 -0 -0 -0 -0 -1 -0 -0 -0 -0 -0 -0 -0 -0 -96 -0 -201 -77 -139 -184 -108 -140 -8 -0 -0 -0 -10 -0 -0 -5 -86 -48 -1 -0 -0 -3 -72 -112 -88 -9 -3 -50
-0 -0 -0 -0 -0 -0 -0 -0 -0 -0 -0 -0 -0 -0 -0 -0 -0 -0 -0 -0 -0 -0 -90 -232 -133 -91 -25 -7 -1 -1 -0 -3 -9 -11 -5 -0 -0 -0 -0 -0 -0 -90 -120 -21 -58 -95 -84
-0 -0 -0 -0 -0 -0 -0 -0 -0 -0 -0 -1 -0 -0 -0 -0 -0 -0 -0 -0 -0 -0 -0 -0 -177 -190 -177 -25 -31 -28 -5 -12 -1 -0 -62 -6 -8 -5 -2 -1 -119 -138 -57 -169 -185 -126 -149
Wind_Speed
16 16 16 15 15 15 15 15 15 14 14 13 12 12 13 12 11 10 9 8 7 7 7 8 9 10 8 8 8 6 5 8 13 14 12 7 5 3 2 3 2 4 4 5 5 8 7
16 17 16 16 16 15 15 15 15 14 14 13 13 12 13 13 12 11 9 7 7 7 7 7 9 10 8 10 4 3 3 8 9 15 10 8 2 6 5 2 5 6 8 7 3 5 1
17 17 16 15 16 16 16 16 15 15 14 13 13 12 13 13 12 11 8 6 6 6 7 8 8 7 8 7 0 4 2 3 10 10 8 5 3 8 6 3 4 5 6 2 4 6 3
17 17 17 16 16 15 15 16 15 15 14 13 12 13 13 13 12 12 7 6 6 7 8 7 7 7 7 2 4 9 6 8 7 6 5 3 3 7 5 4 4 5 5 6 8 10 3
17 17 17 17 16 16 15 16 16 15 13 12 12 12 13 13 11 10 6 5 7 6 6 6 8 7 3 5 9 11 8 9 11 7 5 3 6 5 6 8 7 5 2 3 6 9 1
18 18 18 18 17 16 16 16 16 15 12 12 11 12 13 12 12 7 5 7 0 6 6 6 5 7 7 7 8 8 10 7 11 10 8 8 7 9 8 10 2 4 4 3 6 6 5
19 19 19 19 18 17 17 17 16 15 13 12 12 12 11 11 10 5 7 6 7 8 9 6 2 4 4 3 5 11 13 12 11 12 12 10 11 13 5 4 5 7 7 6 5 3 2
19 19 19 18 17 17 17 17 16 15 14 13 11 11 11 10 8 4 8 6 6 7 6 15 7 7 5 3 11 14 12 14 14 15 15 8 15 6 2 5 6 8 9 4 6 1 2
18 18 18 18 18 18 18 17 16 14 13 12 12 10 10 7 5 5 8 6 2 6 8 8 7 7 5 8 14 17 17 15 16 20 16 16 6 2 6 7 9 11 8 7 6 6 4
18 18 19 19 18 18 18 17 16 14 14 12 11 10 9 7 5 4 7 4 6 5 7 12 9 8 8 6 9 13 17 13 10 18 16 15 11 6 7 11 9 12 5 7 5 9 2
18 19 20 20 20 19 18 18 17 16 15 13 12 10 8 6 6 6 6 2 5 6 8 10 7 6 9 14 16 14 12 11 15 15 11 14 10 13 12 13 5 4 4 6 5 7 7
19 20 20 20 19 19 20 18 17 16 15 15 13 11 5 7 5 7 3 3 6 8 4 8 9 13 15 13 9 18 15 12 6 16 13 17 5 5 7 6 7 7 8 5 6 7 10
20 20 20 21 21 21 20 20 20 19 18 15 14 9 7 3 2 4 4 6 8 9 5 9 11 17 18 14 13 16 20 20 12 16 14 16 13 12 7 11 11 9 12 9 10 7 1
20 20 21 21 21 22 21 21 21 20 19 17 11 5 11 6 1 4 7 8 9 2 6 6 10 18 16 17 12 15 21 19 19 16 12 13 17 21 12 17 10 14 16 7 5 3 1
20 21 21 22 21 23 23 22 22 23 22 19 3 5 6 4 7 5 9 11 0 2 2 8 12 17 15 16 6 12 16 20 18 16 12 14 12 15 10 11 12 9 12 9 6 7 8
21 21 21 22 23 23 23 24 23 24 24 12 4 5 5 4 8 7 9 6 1 2 1 7 10 15 16 17 13 13 16 15 19 19 15 7 14 12 11 9 7 11 3 10 10 6 8
21 22 22 23 25 23 24 24 24 25 25 8 6 4 5 6 6 7 9 3 2 1 3 4 6 10 11 17 15 16 14 8 20 22 17 8 10 12 8 13 16 9 10 10 9 8 4
22 22 22 24 25 23 24 25 24 25 25 6 5 3 5 5 7 6 8 5 2 5 3 5 4 7 10 15 15 12 10 13 21 21 23 17 10 10 17 8 4 10 13 16 12 12 7
21 22 22 23 24 24 25 25 25 25 19 6 0 6 5 5 6 8 5 8 5 9 7 3 5 6 5 10 10 13 10 5 11 20 21 16 10 11 11 12 9 11 16 17 18 10 6
20 21 22 23 24 23 24 25 27 25 21 5 4 6 6 6 4 8 4 8 8 4 10 8 6 4 6 6 7 5 9 6 12 19 12 14 15 13 12 4 5 14 17 20 18 11 12
20 21 22 22 24 23 24 25 27 27 22 6 2 3 5 8 9 6 4 2 5 5 5 6 6 9 8 5 7 9 9 6 10 9 11 17 19 14 17 2 5 10 12 19 20 17 10
19 20 22 23 24 23 23 23 26 28 32 3 5 4 3 0 3 6 5 4 5 3 5 7 8 6 7 7 4 3 8 6 8 12 14 17 9 12 14 9 9 9 9 14 17 8 9
20 20 21 21 23 23 22 22 22 23 23 4 3 1 5 5 6 6 2 2 1 3 5 4 6 7 6 5 6 9 6 5 6 10 12 12 8 7 12 8 8 9 11 12 11 9 9
20 20 21 22 22 23 20 20 20 17 17 5 4 5 5 4 5 1 2 4 5 4 5 5 4 5 5 6 0 5 6 9 10 7 13 7 8 6 8 8 13 5 3 2 6 6 7
20 20 22 21 22 21 21 19 18 15 13 6 3 5 4 4 2 4 2 4 2 4 3 3 4 3 2 5 5 6 3 2 3 2 3 6 6 5 6 13 5 7 5 2 5 9 4
19 20 20 21 22 22 21 20 18 15 13 6 3 4 4 6 5 3 5 3 1 1 6 5 5 1 4 4 4 7 5 3 6 5 6 4 9 10 3 10 10 7 5 2 2 10 5
18 19 21 22 22 22 21 20 19 16 12 8 3 4 5 4 4 4 3 5 3 2 2 3 3 3 5 4 5 6 4 3 4 13 11 3 11 13 10 10 7 5 5 6 9 5 3
18 20 21 20 21 21 20 20 18 17 13 7 2 3 6 4 3 2 2 4 3 1 4 6 4 4 5 6 5 3 4 4 4 3 2 6 7 9 7 10 13 10 8 10 3 2 3
20 20 20 21 22 21 21 19 18 14 11 7 3 0 3 6 6 5 9 9 8 6 5 2 3 3 4 3 1 2 4 4 3 6 3 4 4 7 5 4 4 4 5 3 5 1 4
Wind_Direction
11 8 8 7 7 4 2 360 357 354 351 350 347 346 341 339 329 316 304 293 286 289 290 298 299 310 273 219 253 49 312 131 163 201 225 234 270 316 341 2 284 271 345 302 295 305 275
10 8 8 7 5 2 359 356 354 351 348 346 345 342 340 339 333 324 308 290 284 284 286 293 294 301 245 239 77 118 54 149 173 195 202 223 332 340 282 318 276 332 307 309 355 31 81
8 5 3 5 2 358 356 355 352 347 347 344 343 341 340 338 336 326 317 296 281 278 284 287 285 273 249 245 349 215 289 180 174 203 192 204 294 272 335 221 325 292 280 191 44 348 70
6 4 1 359 358 354 352 351 349 346 343 344 342 342 340 338 337 327 317 295 278 278 279 272 268 247 262 137 271 254 216 173 177 195 250 154 243 277 261 307 221 273 236 203 69 358 91
3 0 357 356 352 350 348 346 346 343 338 340 341 340 336 335 335 320 303 278 281 269 261 250 232 249 229 138 219 211 205 187 170 171 186 210 257 294 220 240 206 231 84 13 125 35 154
1 358 355 354 350 347 345 344 343 340 336 337 337 335 332 334 337 313 284 272 352 224 211 212 261 235 222 171 155 176 190 205 179 164 173 217 230 240 219 238 210 61 344 352 12 54 75
360 356 353 350 344 346 344 342 340 337 336 338 338 336 335 336 337 303 257 186 191 176 213 249 135 303 129 145 200 190 173 182 193 194 198 205 232 221 101 10 349 318 304 316 80 91 73
355 353 350 345 342 344 341 339 336 332 335 335 335 333 340 339 328 281 264 248 14 354 223 221 243 265 249 289 173 169 185 190 196 198 203 180 228 213 120 300 293 293 287 287 123 117 244
350 347 345 342 343 343 340 334 330 329 330 331 331 330 332 332 334 235 236 251 107 335 253 157 200 234 203 212 193 172 195 208 201 207 194 224 178 36 238 261 269 261 285 306 300 136 116
349 346 343 342 343 340 337 331 328 326 325 322 319 317 317 327 256 153 225 199 229 304 251 147 190 183 180 221 204 170 205 190 205 212 206 227 166 234 242 246 264 262 2 286 252 233 202
349 345 344 344 341 336 332 331 327 327 323 318 311 308 302 264 338 218 57 211 236 232 233 134 144 110 154 196 137 186 184 201 211 205 191 206 215 231 241 243 222 343 335 292 242 237 225
348 346 345 341 337 337 339 337 332 327 323 319 309 305 290 192 224 265 245 215 215 226 212 151 139 176 173 195 195 145 181 224 249 217 206 241 172 232 246 213 225 305 267 208 199 227 234
349 345 341 341 340 336 336 330 326 324 321 307 300 274 220 228 96 147 212 195 213 253 131 157 173 171 187 177 168 179 187 195 191 197 200 216 208 216 223 238 219 238 228 221 217 203 143
346 345 344 342 340 339 338 331 332 330 328 317 306 251 184 228 234 241 208 209 240 70 183 132 164 176 192 174 172 194 192 199 212 216 207 209 205 220 208 231 237 210 235 241 273 213 137
346 344 340 341 340 342 339 336 336 335 335 330 227 168 145 190 215 240 217 218 142 139 60 165 165 177 199 184 192 185 205 209 197 213 233 194 226 178 208 217 235 176 235 293 278 206 264
345 345 344 343 344 342 340 341 340 341 342 338 211 192 92 127 174 221 229 266 144 10 303 215 186 194 188 191 202 200 184 205 198 205 227 198 204 192 171 210 207 277 217 213 234 237 259
344 343 343 344 346 343 342 344 344 344 343 330 243 187 71 162 206 212 219 185 245 174 314 256 212 189 218 185 206 197 178 167 200 191 212 218 244 154 183 202 213 187 221 238 286 279 303
339 344 343 345 347 345 344 346 347 347 340 268 285 146 122 196 215 202 226 228 20 261 226 267 266 271 214 179 200 200 212 228 187 192 200 218 214 219 203 126 320 295 247 217 231 194 247
341 342 345 345 347 346 346 346 349 347 350 306 118 113 166 260 218 196 186 248 257 279 266 244 233 250 179 175 208 218 219 183 187 199 193 201 231 203 219 192 198 228 219 249 242 263 204
343 341 344 343 347 347 348 345 347 347 348 269 260 146 152 217 292 286 212 231 245 206 263 279 286 252 195 227 221 212 207 159 204 195 193 187 232 231 224 192 339 203 216 213 240 226 237
343 342 342 344 347 349 350 347 347 348 351 269 288 61 10 181 198 219 246 300 243 226 208 228 243 243 217 244 195 211 202 148 186 165 199 218 234 219 250 262 283 280 214 204 224 243 255
343 343 342 346 347 350 351 350 350 350 337 276 328 315 188 168 173 225 147 192 259 204 244 198 242 308 236 255 322 185 182 197 171 180 198 211 235 226 236 246 262 256 230 210 229 246 268
342 344 343 344 347 350 351 353 355 359 340 9 20 210 281 137 184 230 120 355 323 313 203 285 308 272 226 64 60 61 87 123 131 175 195 202 210 213 224 209 235 241 216 215 219 238 252
344 343 344 345 346 349 350 354 356 4 2 316 22 287 278 146 237 17 306 310 286 298 297 343 331 236 85 115 34 224 112 82 96 149 169 185 224 231 240 177 217 90 78 332 279 286 276
342 342 344 344 344 346 349 351 354 358 355 309 351 314 322 273 331 184 316 321 260 142 196 11 53 60 170 237 206 164 145 102 127 29 330 338 216 173 234 212 140 146 191 209 267 288 232
338 341 341 342 343 344 346 349 350 355 356 303 347 319 295 303 93 339 309 351 357 68 166 96 74 149 260 262 188 203 205 177 193 30 289 318 278 270 169 267 240 70 86 163 248 272 214
339 341 341 340 341 341 343 345 347 352 354 316 338 331 278 292 81 319 9 355 336 281 313 111 340 221 257 225 211 210 160 186 193 205 193 207 260 245 225 242 254 119 133 162 260 306 171
335 335 339 337 337 338 338 340 342 347 350 324 357 348 321 303 301 285 331 339 330 323 313 40 234 199 206 236 269 142 253 138 225 65 239 229 233 222 230 251 255 149 147 236 356 9 169
333 332 333 334 334 334 333 335 336 337 337 323 272 171 307 259 349 311 294 294 282 297 299 17 41 54 19 270 127 258 200 185 318 239 189 235 329 337 301 34 75 239 313 44 333 280 161